User: anonymous   Login
Location: Regona
(45.2000°N, 9.8167°E)
Time: 02:49:55
(UTC+00:00)
Language:

STARLINK-45 - Orbit

View from above orbital plane
View from above orbital plane
View from above satellite
View from above satellite

Ground track
Ground track

The orbit data is extracted from the following two-line orbital elements,

1 44260U 19029AB  20248.32345525  .25127740  12274-4  21111-2 0  9998
2 44260  52.9913 174.9865 0009412 250.3159 109.8966 16.38652946 71599
Epoch (UTC): 04 September 2020 07:45:46
Eccentricity: 0.0009412
inclination: 52.9913°
perigee height: 163 km
apogee height: 175 km
right ascension of ascending node: 174.9865°
argument of perigee: 250.3159°
revolutions per day: 16.38652946
mean anomaly at epoch: 109.8966°
orbit number at epoch: 7159

The dashed part of the orbit path shows where the satellite is in the earth's shadow,  

DLR